Regional Weather Roundup
Issued by NWS

Home | Current Version | Previous Version | Text Only | Print | Product List | Glossary Off
Versions: 1 2 3 4 5 6 7 8 9 10 11 12 13 14 15 16 17 18 19 20 21 22 23 24 25 26 27 28 29 30 31 32 33 34 35 36 37 38 39 40 41 42 43 44 45 46 47 48 49 50

000
ASUS43 KIND 271059
RWRIN

WEATHER ROUNDUP FOR INDIANA
NATIONAL WEATHER SERVICE INDIANAPOLIS IN
700 AM EDT TUE JUN 27 2017

NOTE: "FAIR" INDICATES FEW OR NO CLOUDS BELOW 12,000 FEET WITH NO
SIGNIFICANT WEATHER AND/OR OBSTRUCTIONS TO VISIBILITY.

* - STATION DOES NOT REPORT WEATHER SUCH AS PRECIPITATION OR FOG.

+ - STATION NOT QUALITY CONTROLLED BY THE NATIONAL WEATHER SERVICE.
    USE DATA WITH CAUTION...ESPECIALLY DEWPOINT AND RELATIVE
    HUMIDITY OBSERVATIONS.

INZ001>003-010>013-019-020-271200-
NORTHWEST INDIANA

CITY           SKY/WX    TMP DP  RH WIND       PRES   REMARKS
GARY /AIRPORT/ CLEAR     48  45  87 CALM      30.13R
KNOX *+        CLEAR     48  41  76 CALM      30.12S
MICHIGAN CITY+ CLEAR     50  50 100 CALM      30.12R
MONTICELLO +   CLEAR     50  47  90 CALM      30.13R

$$

LMZ046-743>745-271200-
SOUTHERN LAKE MICHIGAN

STATION/POSITION TIME  TEMP    WIND        PRES    WAVE
                       AIR SEA DIR/SP/G            HT
                 (UTC) (F)     (DEG/KT/KT) (MB)    (FT)
BURNS HARBOR     1040   61     300/  7/  8 1020.0R
MICHIGAN CITY    1030   60     300/  8/  9   N/A
5NW MICH CITY    1050   61 65  300/  6/  8   N/A     3

$$

INZ004-005-014>016-021>024-271200-
NORTH CENTRAL INDIANA

CITY           SKY/WX    TMP DP  RH WIND       PRES   REMARKS
ELKHART        CLEAR     50  48  93 CALM      30.11
GOSHEN         CLEAR     50  46  86 W3        30.11R
SOUTH BEND     CLEAR     49  48  97 CALM      30.12R

$$

INZ006>009-017-018-025>027-271200-
NORTHEAST INDIANA

CITY           SKY/WX    TMP DP  RH WIND       PRES   REMARKS
FORT WAYNE     PTCLDY    52  49  89 W5        30.11R
KENDALLVILLE + CLEAR     51  49  93 NW3       30.10R

$$

INZ028-029-035-036-043>045-051>053-271200-
WEST CENTRAL INDIANA

CITY           SKY/WX    TMP DP  RH WIND       PRES   REMARKS
CRAWFORDSVL +  CLEAR     46  46 100 CALM      30.14R FOG
GREENCASTLE +  CLEAR     46  46 100 CALM      30.15R
LAFAYETTE      FOG       48  48 100 CALM      30.14R VSB 1/4
TERRE HAUTE    CLEAR     50  48  93 CALM      30.15R

$$

INZ030>032-037>040-046>048-054>057-064-065-271200-
CENTRAL INDIANA

CITY           SKY/WX    TMP DP  RH WIND       PRES   REMARKS
COLUMBUS       CLEAR     52  46  82 CALM      30.14
GREENWOOD *+   PTCLDY    51  48  91 CALM      30.15R
INDIANAPOLIS   CLEAR     52  49  89 W5        30.14R
-EAGLE CREEK   CLEAR     54  50  86 NW6       30.13R
KOKOMO +       PTCLDY    52  49  89 W5        30.13R
MT COMFORT *+  CLEAR     50  48  93 W5        30.13R
SHELBYVILLE    CLEAR     53  48  83 CALM      30.13R

$$

INZ033-034-041-042-049-050-058-059-271200-
EAST CENTRAL INDIANA

CITY           SKY/WX    TMP DP  RH WIND       PRES   REMARKS
MUNCIE         CLEAR     53  50  89 W5        30.12R
RICHMOND +     CLEAR     46  46 100 CALM      30.13R FOG

$$

INZ060-061-067>069-081>083-085>088-271200-
SOUTHWEST INDIANA

CITY           SKY/WX    TMP DP  RH WIND       PRES   REMARKS
EVANSVILLE     CLEAR     55  52  89 CALM      30.15R
HUNTINGBURG *+ CLEAR     54  53  97 CALM      30.15R FOG

$$

INZ062-063-066-070>080-084-089>092-271200-
SOUTH CENTRAL AND SOUTHEAST INDIANA

CITY           SKY/WX    TMP DP  RH WIND       PRES   REMARKS
BLOOMINGTON    CLEAR     50  47  89 CALM      30.14R
MADISON *+     CLEAR     52  52 100 CALM      30.16R
SEYMOUR +      CLEAR     54  54 100 CALM      30.14R

$$





USA.gov is the U.S. government's official web portal to all federal, state and local government web resources and services.